Time,TemperatureF,DewpointF,PressureIn,WindDirection,WindDirectionDegrees,WindSpeedMPH,WindSpeedGustMPH,Humidity,HourlyPrecipIn,Conditions,Clouds,dailyrainin,SoftwareType,DateUTC
2013-04-20 00:01:00,48.2,27.2,30.25,SE,135,0.9,3.4,44,0.00,,,0.00,WUHU216HW,2013-04-20 07:01:00,
2013-04-20 00:06:00,48.2,27.2,30.24,East,90,1.8,2.5,44,0.00,,,0.00,WUHU216HW,2013-04-20 07:06:00,
2013-04-20 00:11:00,48.2,27.2,30.24,ESE,113,0.0,2.5,44,0.00,,,0.00,WUHU216HW,2013-04-20 07:11:00,
2013-04-20 00:16:00,48.2,27.2,30.25,ENE,68,3.1,3.1,44,0.00,,,0.00,WUHU216HW,2013-04-20 07:16:00,
2013-04-20 00:21:00,48.2,27.2,30.24,SE,135,2.2,4.0,44,0.00,,,0.00,WUHU216HW,2013-04-20 07:21:00,
2013-04-20 00:26:00,48.2,27.2,30.25,WSW,248,1.1,4.0,44,0.00,,,0.00,WUHU216HW,2013-04-20 07:26:00,
2013-04-20 00:31:00,48.2,27.2,30.24,SSE,158,2.2,4.3,44,0.00,,,0.00,WUHU216HW,2013-04-20 07:31:00,
2013-04-20 00:36:00,48.2,27.2,30.25,South,180,0.0,4.3,44,0.00,,,0.00,WUHU216HW,2013-04-20 07:36:00,
2013-04-20 00:41:00,48.2,27.2,30.25,SE,135,0.4,3.4,44,0.00,,,0.00,WUHU216HW,2013-04-20 07:41:00,
2013-04-20 00:46:00,48.2,27.2,30.25,SSW,203,1.1,3.4,44,0.00,,,0.00,WUHU216HW,2013-04-20 07:46:00,
2013-04-20 00:51:00,48.1,27.0,30.25,ENE,68,1.6,2.0,44,0.00,,,0.00,WUHU216HW,2013-04-20 07:51:00,
2013-04-20 00:56:00,48.1,27.0,30.25,SW,225,0.0,2.2,44,0.00,,,0.00,WUHU216HW,2013-04-20 07:56:00,
2013-04-20 01:01:00,48.1,27.0,30.25,ESE,113,0.9,2.2,44,0.00,,,0.00,WUHU216HW,2013-04-20 08:01:00,
2013-04-20 01:06:00,48.1,27.0,30.26,SE,135,0.0,2.2,44,0.00,,,0.00,WUHU216HW,2013-04-20 08:06:00,
2013-04-20 01:11:00,47.9,26.8,30.26,ESE,113,1.1,2.2,44,0.00,,,0.00,WUHU216HW,2013-04-20 08:11:00,
2013-04-20 01:16:00,47.9,26.8,30.26,WSW,248,0.0,1.8,44,0.00,,,0.00,WUHU216HW,2013-04-20 08:16:00,
2013-04-20 01:21:00,47.9,26.8,30.26,SW,225,0.4,1.8,44,0.00,,,0.00,WUHU216HW,2013-04-20 08:21:00,
2013-04-20 01:26:00,47.9,26.8,30.26,ENE,68,1.3,1.8,44,0.00,,,0.00,WUHU216HW,2013-04-20 08:26:00,
2013-04-20 01:31:00,47.9,26.8,30.26,SSW,203,1.1,1.8,44,0.00,,,0.00,WUHU216HW,2013-04-20 08:31:00,
2013-04-20 01:36:00,47.9,26.8,30.26,ENE,68,0.9,1.8,44,0.00,,,0.00,WUHU216HW,2013-04-20 08:36:00,
2013-04-20 01:41:00,47.9,26.8,30.26,SSE,158,0.0,1.8,44,0.00,,,0.00,WUHU216HW,2013-04-20 08:41:00,
2013-04-20 01:46:00,47.9,26.8,30.26,ESE,113,1.6,2.2,44,0.00,,,0.00,WUHU216HW,2013-04-20 08:46:00,
2013-04-20 01:51:00,47.9,26.8,30.25,SSW,203,1.8,2.2,44,0.00,,,0.00,WUHU216HW,2013-04-20 08:51:00,
2013-04-20 01:56:00,47.9,26.8,30.25,SSW,203,1.6,4.7,44,0.00,,,0.00,WUHU216HW,2013-04-20 08:56:00,
2013-04-20 02:01:00,47.9,26.8,30.25,South,180,0.7,4.7,44,0.00,,,0.00,WUHU216HW,2013-04-20 09:01:00,
2013-04-20 02:06:00,47.9,26.8,30.25,SSE,158,1.6,2.7,44,0.00,,,0.00,WUHU216HW,2013-04-20 09:06:00,
2013-04-20 02:11:00,47.9,26.8,30.25,ESE,113,2.5,4.0,44,0.00,,,0.00,WUHU216HW,2013-04-20 09:11:00,
2013-04-20 02:16:00,47.7,26.7,30.25,SE,135,3.6,4.7,44,0.00,,,0.00,WUHU216HW,2013-04-20 09:16:00,
2013-04-20 02:21:00,47.7,26.7,30.25,South,180,0.4,4.7,44,0.00,,,0.00,WUHU216HW,2013-04-20 09:21:00,
2013-04-20 02:26:00,47.7,26.7,30.25,SW,225,2.0,3.6,44,0.00,,,0.00,WUHU216HW,2013-04-20 09:26:00,
2013-04-20 02:31:00,47.5,26.6,30.25,SE,135,0.9,5.4,44,0.00,,,0.00,WUHU216HW,2013-04-20 09:31:00,
2013-04-20 02:36:00,47.5,26.6,30.25,SSW,203,3.4,5.4,44,0.00,,,0.00,WUHU216HW,2013-04-20 09:36:00,
2013-04-20 02:41:00,47.5,26.6,30.25,SW,225,0.0,5.1,44,0.00,,,0.00,WUHU216HW,2013-04-20 09:41:00,
2013-04-20 02:46:00,47.5,26.6,30.25,East,90,1.1,3.8,44,0.00,,,0.00,WUHU216HW,2013-04-20 09:46:00,
2013-04-20 02:51:00,47.5,26.6,30.25,SSE,158,1.1,3.8,44,0.00,,,0.00,WUHU216HW,2013-04-20 09:51:00,
2013-04-20 02:56:00,47.5,26.6,30.25,SE,135,0.9,3.8,44,0.00,,,0.00,WUHU216HW,2013-04-20 09:56:00,
2013-04-20 03:01:00,47.5,26.6,30.25,SE,135,0.4,3.1,44,0.00,,,0.00,WUHU216HW,2013-04-20 10:01:00,
2013-04-20 03:06:00,47.5,26.6,30.25,SSW,203,1.6,3.1,44,0.00,,,0.00,WUHU216HW,2013-04-20 10:06:00,
2013-04-20 03:11:00,47.5,26.6,30.25,SSW,203,1.1,4.9,44,0.00,,,0.00,WUHU216HW,2013-04-20 10:11:00,
2013-04-20 03:16:00,47.5,26.6,30.25,SW,225,2.0,4.9,44,0.00,,,0.00,WUHU216HW,2013-04-20 10:16:00,
2013-04-20 03:21:00,47.3,26.9,30.25,SW,225,4.7,4.7,45,0.00,,,0.00,WUHU216HW,2013-04-20 10:21:00,
2013-04-20 03:26:00,47.3,26.9,30.25,SSW,203,0.7,4.7,45,0.00,,,0.00,WUHU216HW,2013-04-20 10:26:00,
2013-04-20 03:31:00,47.3,26.9,30.25,SSE,158,0.7,4.7,45,0.00,,,0.00,WUHU216HW,2013-04-20 10:31:00,
2013-04-20 03:36:00,47.3,26.9,30.25,SSE,158,0.0,5.6,45,0.00,,,0.00,WUHU216HW,2013-04-20 10:36:00,
2013-04-20 03:41:00,47.3,26.9,30.26,West,270,0.7,5.6,45,0.00,,,0.00,WUHU216HW,2013-04-20 10:41:00,
2013-04-20 03:46:00,47.2,26.7,30.25,SE,135,0.9,2.5,45,0.00,,,0.00,WUHU216HW,2013-04-20 10:46:00,
2013-04-20 03:51:00,47.2,26.7,30.25,SE,135,0.7,2.5,45,0.00,,,0.00,WUHU216HW,2013-04-20 10:51:00,
2013-04-20 03:56:00,47.2,26.7,30.25,SE,135,1.3,2.0,45,0.00,,,0.00,WUHU216HW,2013-04-20 10:56:00,
2013-04-20 04:01:00,47.2,26.7,30.25,South,180,0.7,3.4,45,0.00,,,0.00,WUHU216HW,2013-04-20 11:01:00,
2013-04-20 04:06:00,47.2,26.7,30.25,SSW,203,0.9,3.4,45,0.00,,,0.00,WUHU216HW,2013-04-20 11:06:00,
2013-04-20 04:11:00,47.2,26.7,30.25,SSE,158,1.1,3.8,45,0.00,,,0.00,WUHU216HW,2013-04-20 11:11:00,
2013-04-20 04:16:00,47.2,26.7,30.25,SW,225,0.7,5.1,45,0.00,,,0.00,WUHU216HW,2013-04-20 11:16:00,
2013-04-20 04:21:00,47.0,26.6,30.25,SW,225,1.1,5.1,45,0.00,,,0.00,WUHU216HW,2013-04-20 11:21:00,
2013-04-20 04:26:00,47.0,26.6,30.25,SW,225,0.9,3.4,45,0.00,,,0.00,WUHU216HW,2013-04-20 11:26:00,
2013-04-20 04:31:00,47.0,26.6,30.26,SSE,158,0.9,3.8,45,0.00,,,0.00,WUHU216HW,2013-04-20 11:31:00,
2013-04-20 04:36:00,47.0,26.6,30.26,SE,135,2.2,4.9,45,0.00,,,0.00,WUHU216HW,2013-04-20 11:36:00,
2013-04-20 04:41:00,47.0,26.6,30.26,West,270,0.9,4.9,45,0.00,,,0.00,WUHU216HW,2013-04-20 11:41:00,
2013-04-20 04:46:00,47.0,26.6,30.26,SSE,158,1.8,2.9,45,0.00,,,0.00,WUHU216HW,2013-04-20 11:46:00,
2013-04-20 04:51:00,47.0,26.6,30.26,SSW,203,3.1,4.0,45,0.00,,,0.00,WUHU216HW,2013-04-20 11:51:00,
2013-04-20 04:56:00,47.0,26.6,30.26,SSW,203,1.3,4.9,45,0.00,,,0.00,WUHU216HW,2013-04-20 11:56:00,
2013-04-20 05:01:00,47.0,26.6,30.27,SSW,203,0.9,4.9,45,0.00,,,0.00,WUHU216HW,2013-04-20 12:01:00,
2013-04-20 05:06:00,47.0,26.6,30.27,SSE,158,2.0,5.1,45,0.00,,,0.00,WUHU216HW,2013-04-20 12:06:00,
2013-04-20 05:11:00,47.0,26.6,30.27,SE,135,2.5,5.1,45,0.00,,,0.00,WUHU216HW,2013-04-20 12:11:00,
2013-04-20 05:16:00,47.0,26.6,30.27,SSE,158,0.0,5.1,45,0.00,,,0.00,WUHU216HW,2013-04-20 12:16:00,
2013-04-20 05:21:00,46.8,27.0,30.27,SSE,158,0.4,3.1,46,0.00,,,0.00,WUHU216HW,2013-04-20 12:21:00,
2013-04-20 05:26:00,47.0,27.1,30.27,West,270,0.2,4.9,46,0.00,,,0.00,WUHU216HW,2013-04-20 12:26:00,
2013-04-20 05:31:00,46.8,27.0,30.27,SE,135,1.6,4.9,46,0.00,,,0.00,WUHU216HW,2013-04-20 12:31:00,
2013-04-20 05:36:00,46.8,27.0,30.27,SSE,158,2.0,3.6,46,0.00,,,0.00,WUHU216HW,2013-04-20 12:36:00,
2013-04-20 05:41:00,46.8,27.0,30.27,WSW,248,0.4,3.6,46,0.00,,,0.00,WUHU216HW,2013-04-20 12:41:00,
2013-04-20 05:46:00,46.8,27.0,30.27,SE,135,2.2,2.9,46,0.00,,,0.00,WUHU216HW,2013-04-20 12:46:00,
2013-04-20 05:51:00,46.8,27.0,30.27,WSW,248,0.0,7.4,46,0.00,,,0.00,WUHU216HW,2013-04-20 12:51:00,
2013-04-20 05:56:00,46.8,27.0,30.27,ENE,68,0.9,7.4,46,0.00,,,0.00,WUHU216HW,2013-04-20 12:56:00,
2013-04-20 06:01:00,46.8,27.0,30.27,SSE,158,0.7,1.3,46,0.00,,,0.00,WUHU216HW,2013-04-20 13:01:00,
2013-04-20 06:06:00,46.8,27.0,30.28,West,270,0.0,4.5,46,0.00,,,0.00,WUHU216HW,2013-04-20 13:06:00,
2013-04-20 06:11:00,46.6,26.8,30.27,SSE,158,0.2,4.5,46,0.00,,,0.00,WUHU216HW,2013-04-20 13:11:00,
2013-04-20 06:16:00,46.6,26.8,30.28,ESE,113,1.1,2.7,46,0.00,,,0.00,WUHU216HW,2013-04-20 13:16:00,
2013-04-20 06:21:00,46.6,26.8,30.27,SSE,158,0.2,3.6,46,0.00,,,0.00,WUHU216HW,2013-04-20 13:21:00,
2013-04-20 06:26:00,46.6,26.8,30.27,NW,315,1.1,3.6,46,0.00,,,0.00,WUHU216HW,2013-04-20 13:26:00,
2013-04-20 06:31:00,46.6,26.8,30.27,SW,225,0.4,2.7,46,0.00,,,0.00,WUHU216HW,2013-04-20 13:31:00,
2013-04-20 06:36:00,46.6,26.8,30.27,SSE,158,2.2,3.4,46,0.00,,,0.00,WUHU216HW,2013-04-20 13:36:00,
2013-04-20 06:41:00,46.6,26.8,30.27,WSW,248,2.2,3.4,46,0.00,,,0.00,WUHU216HW,2013-04-20 13:41:00,
2013-04-20 06:46:00,46.6,26.8,30.27,SSW,203,1.3,3.4,46,0.00,,,0.00,WUHU216HW,2013-04-20 13:46:00,
2013-04-20 06:51:00,46.6,26.8,30.27,SE,135,2.5,3.4,46,0.00,,,0.00,WUHU216HW,2013-04-20 13:51:00,
2013-04-20 06:56:00,46.6,26.8,30.27,SSW,203,0.9,2.9,46,0.00,,,0.00,WUHU216HW,2013-04-20 13:56:00,
2013-04-20 07:01:00,46.6,26.8,30.27,SSE,158,0.4,3.8,46,0.00,,,0.00,WUHU216HW,2013-04-20 14:01:00,
2013-04-20 07:06:00,46.6,26.8,30.27,SSW,203,0.4,3.8,46,0.00,,,0.00,WUHU216HW,2013-04-20 14:06:00,
2013-04-20 07:11:00,46.6,26.8,30.27,SSE,158,1.1,2.5,46,0.00,,,0.00,WUHU216HW,2013-04-20 14:11:00,
2013-04-20 07:16:00,46.6,26.8,30.27,SW,225,1.1,2.5,46,0.00,,,0.00,WUHU216HW,2013-04-20 14:16:00,
2013-04-20 07:21:00,46.6,26.8,30.27,SE,135,0.4,2.5,46,0.00,,,0.00,WUHU216HW,2013-04-20 14:21:00,
2013-04-20 07:26:00,46.6,26.8,30.28,SSW,203,3.8,4.0,46,0.00,,,0.00,WUHU216HW,2013-04-20 14:26:00,
2013-04-20 07:31:00,46.8,27.0,30.28,WSW,248,0.4,4.0,46,0.00,,,0.00,WUHU216HW,2013-04-20 14:31:00,
2013-04-20 07:36:00,46.8,27.0,30.28,SE,135,0.4,2.7,46,0.00,,,0.00,WUHU216HW,2013-04-20 14:36:00,
2013-04-20 07:41:00,46.8,27.0,30.28,WSW,248,0.7,4.5,46,0.00,,,0.00,WUHU216HW,2013-04-20 14:41:00,
2013-04-20 07:46:00,46.8,27.0,30.28,West,270,0.7,4.5,46,0.00,,,0.00,WUHU216HW,2013-04-20 14:46:00,
2013-04-20 07:51:00,46.8,27.0,30.28,SE,135,1.1,4.7,46,0.00,,,0.00,WUHU216HW,2013-04-20 14:51:00,
2013-04-20 07:56:00,46.8,27.0,30.28,SSW,203,1.1,4.7,46,0.00,,,0.00,WUHU216HW,2013-04-20 14:56:00,
2013-04-20 08:01:00,46.8,27.0,30.28,SW,225,0.9,3.6,46,0.00,,,0.00,WUHU216HW,2013-04-20 15:01:00,
2013-04-20 08:06:00,46.8,27.0,30.28,SSE,158,0.4,3.6,46,0.00,,,0.00,WUHU216HW,2013-04-20 15:06:00,
2013-04-20 08:11:00,47.0,27.1,30.29,WSW,248,0.0,1.8,46,0.00,,,0.00,WUHU216HW,2013-04-20 15:11:00,
2013-04-20 08:16:00,47.0,27.1,30.29,SW,225,0.9,2.2,46,0.00,,,0.00,WUHU216HW,2013-04-20 15:16:00,
2013-04-20 08:21:00,47.2,27.3,30.29,SSE,158,2.2,2.5,46,0.00,,,0.00,WUHU216HW,2013-04-20 15:21:00,
2013-04-20 08:26:00,47.2,27.3,30.28,SE,135,1.1,3.1,46,0.00,,,0.00,WUHU216HW,2013-04-20 15:26:00,
2013-04-20 08:31:00,47.2,27.3,30.28,SSE,158,2.2,5.4,46,0.00,,,0.00,WUHU216HW,2013-04-20 15:31:00,
2013-04-20 08:36:00,47.2,27.8,30.29,SW,225,5.4,5.4,47,0.00,,,0.00,WUHU216HW,2013-04-20 15:36:00,
2013-04-20 08:41:00,47.2,27.3,30.29,SW,225,1.6,5.4,46,0.00,,,0.00,WUHU216HW,2013-04-20 15:41:00,
2013-04-20 08:46:00,47.2,27.3,30.29,SSE,158,2.5,5.4,46,0.00,,,0.00,WUHU216HW,2013-04-20 15:46:00,
2013-04-20 08:51:00,47.2,27.3,30.29,SSW,203,0.4,3.1,46,0.00,,,0.00,WUHU216HW,2013-04-20 15:51:00,
2013-04-20 08:56:00,47.2,27.3,30.29,SSE,158,1.1,2.2,46,0.00,,,0.00,WUHU216HW,2013-04-20 15:56:00,
2013-04-20 09:01:00,47.2,27.3,30.29,SE,135,2.0,2.0,46,0.00,,,0.00,WUHU216HW,2013-04-20 16:01:00,
2013-04-20 09:06:00,47.2,27.3,30.29,South,180,1.6,4.3,46,0.00,,,0.00,WUHU216HW,2013-04-20 16:06:00,
2013-04-20 09:11:00,47.2,27.3,30.29,SSW,203,0.7,5.4,46,0.00,,,0.00,WUHU216HW,2013-04-20 16:11:00,
2013-04-20 09:16:00,47.3,27.5,30.29,SW,225,1.1,5.4,46,0.00,,,0.00,WUHU216HW,2013-04-20 16:16:00,
2013-04-20 09:21:00,47.3,27.5,30.29,SSW,203,1.1,4.3,46,0.00,,,0.00,WUHU216HW,2013-04-20 16:21:00,
2013-04-20 09:26:00,47.3,27.5,30.29,SW,225,0.2,4.3,46,0.00,,,0.00,WUHU216HW,2013-04-20 16:26:00,
2013-04-20 09:31:00,47.3,27.5,30.29,SSW,203,1.1,2.9,46,0.00,,,0.00,WUHU216HW,2013-04-20 16:31:00,
2013-04-20 09:36:00,47.3,27.5,30.29,SSW,203,0.9,4.7,46,0.00,,,0.00,WUHU216HW,2013-04-20 16:36:00,
2013-04-20 09:41:00,47.5,27.6,30.29,WSW,248,0.4,4.7,46,0.00,,,0.00,WUHU216HW,2013-04-20 16:41:00,
2013-04-20 09:46:00,47.5,27.6,30.29,ESE,113,1.8,2.2,46,0.00,,,0.00,WUHU216HW,2013-04-20 16:46:00,
2013-04-20 09:51:00,47.7,27.8,30.29,ESE,113,1.1,2.9,46,0.00,,,0.00,WUHU216HW,2013-04-20 16:51:00,
2013-04-20 09:56:00,47.9,27.4,30.29,ESE,113,0.0,2.9,45,0.00,,,0.00,WUHU216HW,2013-04-20 16:56:00,
2013-04-20 10:01:00,47.9,27.4,30.29,SE,135,0.4,1.6,45,0.00,,,0.00,WUHU216HW,2013-04-20 17:01:00,
2013-04-20 10:06:00,47.9,27.9,30.29,SE,135,1.6,2.0,46,0.00,,,0.00,WUHU216HW,2013-04-20 17:06:00,
2013-04-20 10:11:00,47.9,27.4,30.29,SSW,203,0.2,2.0,45,0.00,,,0.00,WUHU216HW,2013-04-20 17:11:00,
2013-04-20 10:16:00,48.1,27.5,30.30,SSW,203,0.0,1.8,45,0.00,,,0.00,WUHU216HW,2013-04-20 17:16:00,
2013-04-20 10:21:00,48.1,27.5,30.30,SE,135,1.1,2.0,45,0.00,,,0.00,WUHU216HW,2013-04-20 17:21:00,
2013-04-20 10:26:00,48.1,27.5,30.30,SW,225,0.4,4.3,45,0.00,,,0.00,WUHU216HW,2013-04-20 17:26:00,
2013-04-20 10:31:00,48.2,27.7,30.30,SE,135,2.2,4.3,45,0.00,,,0.00,WUHU216HW,2013-04-20 17:31:00,
2013-04-20 10:36:00,48.1,27.5,30.30,South,180,0.7,2.9,45,0.00,,,0.00,WUHU216HW,2013-04-20 17:36:00,
2013-04-20 10:41:00,48.1,27.5,30.30,SE,135,1.3,2.9,45,0.00,,,0.00,WUHU216HW,2013-04-20 17:41:00,
2013-04-20 10:46:00,48.1,28.1,30.30,SE,135,1.1,3.4,46,0.00,,,0.00,WUHU216HW,2013-04-20 17:46:00,
2013-04-20 10:51:00,48.1,27.5,30.31,SE,135,1.1,3.4,45,0.00,,,0.00,WUHU216HW,2013-04-20 17:51:00,
2013-04-20 10:56:00,48.2,27.7,30.31,ESE,113,0.9,2.0,45,0.00,,,0.00,WUHU216HW,2013-04-20 17:56:00,
2013-04-20 11:01:00,48.4,27.9,30.31,SSW,203,1.1,1.8,45,0.00,,,0.00,WUHU216HW,2013-04-20 18:01:00,
2013-04-20 11:06:00,48.4,27.9,30.31,SSW,203,0.0,1.8,45,0.00,,,0.00,WUHU216HW,2013-04-20 18:06:00,
2013-04-20 11:11:00,48.4,27.9,30.31,ESE,113,1.3,3.8,45,0.00,,,0.00,WUHU216HW,2013-04-20 18:11:00,
2013-04-20 11:16:00,48.2,27.7,30.31,SE,135,0.7,4.0,45,0.00,,,0.00,WUHU216HW,2013-04-20 18:16:00,
2013-04-20 11:21:00,48.4,27.4,30.31,ESE,113,0.7,4.0,44,0.00,,,0.00,WUHU216HW,2013-04-20 18:21:00,
2013-04-20 11:26:00,48.6,27.6,30.31,ESE,113,1.1,1.8,44,0.00,,,0.00,WUHU216HW,2013-04-20 18:26:00,
2013-04-20 11:31:00,48.6,27.6,30.31,ESE,113,1.1,3.4,44,0.00,,,0.00,WUHU216HW,2013-04-20 18:31:00,
2013-04-20 11:36:00,48.8,27.7,30.31,SE,135,1.3,3.4,44,0.00,,,0.00,WUHU216HW,2013-04-20 18:36:00,
2013-04-20 11:41:00,49.0,27.9,30.31,ESE,113,2.2,3.1,44,0.00,,,0.00,WUHU216HW,2013-04-20 18:41:00,
2013-04-20 11:46:00,49.3,28.2,30.31,SSW,203,1.6,3.6,44,0.00,,,0.00,WUHU216HW,2013-04-20 18:46:00,
2013-04-20 11:51:00,49.9,29.3,30.31,South,180,3.4,3.6,45,0.00,,,0.00,WUHU216HW,2013-04-20 18:51:00,
2013-04-20 11:56:00,49.9,29.3,30.31,ESE,113,3.1,4.7,45,0.00,,,0.00,WUHU216HW,2013-04-20 18:56:00,
2013-04-20 12:01:00,49.9,29.3,30.31,ESE,113,2.2,4.7,45,0.00,,,0.00,WUHU216HW,2013-04-20 19:01:00,
2013-04-20 12:06:00,49.9,29.8,30.31,ESE,113,1.1,3.6,46,0.00,,,0.00,WUHU216HW,2013-04-20 19:06:00,
2013-04-20 12:11:00,49.9,29.8,30.31,SE,135,0.7,3.6,46,0.00,,,0.00,WUHU216HW,2013-04-20 19:11:00,
2013-04-20 12:16:00,50.0,29.4,30.31,ESE,113,2.5,3.4,45,0.00,,,0.00,WUHU216HW,2013-04-20 19:16:00,
2013-04-20 12:21:00,49.9,29.3,30.31,ESE,113,1.6,3.4,45,0.00,,,0.00,WUHU216HW,2013-04-20 19:21:00,
2013-04-20 12:26:00,50.0,29.4,30.31,ESE,113,0.7,3.4,45,0.00,,,0.00,WUHU216HW,2013-04-20 19:26:00,
2013-04-20 12:31:00,50.0,29.4,30.31,SE,135,1.3,3.4,45,0.00,,,0.00,WUHU216HW,2013-04-20 19:31:00,
2013-04-20 12:36:00,50.4,29.8,30.31,South,180,3.1,3.4,45,0.00,,,0.00,WUHU216HW,2013-04-20 19:36:00,
2013-04-20 12:41:00,50.6,29.9,30.31,SE,135,1.1,3.1,45,0.00,,,0.00,WUHU216HW,2013-04-20 19:41:00,
2013-04-20 12:46:00,50.8,30.1,30.31,SSE,158,0.7,3.6,45,0.00,,,0.00,WUHU216HW,2013-04-20 19:46:00,
2013-04-20 12:51:00,50.8,30.1,30.31,North,0,0.2,3.6,45,0.00,,,0.00,WUHU216HW,2013-04-20 19:51:00,
2013-04-20 12:56:00,50.6,31.1,30.31,SSE,158,1.1,4.9,47,0.00,,,0.00,WUHU216HW,2013-04-20 19:56:00,
2013-04-20 13:01:00,50.8,31.2,30.30,SSE,158,0.7,4.9,47,0.00,,,0.00,WUHU216HW,2013-04-20 20:01:00,
2013-04-20 13:06:00,50.8,30.6,30.30,SE,135,0.2,2.7,46,0.00,,,0.00,WUHU216HW,2013-04-20 20:06:00,
2013-04-20 13:11:00,50.8,30.6,30.30,SE,135,0.9,2.0,46,0.00,,,0.00,WUHU216HW,2013-04-20 20:11:00,
2013-04-20 13:16:00,50.9,30.8,30.30,South,180,0.4,3.4,46,0.00,,,0.00,WUHU216HW,2013-04-20 20:16:00,
2013-04-20 13:21:00,50.9,30.8,30.30,WSW,248,0.0,3.4,46,0.00,,,0.00,WUHU216HW,2013-04-20 20:21:00,
2013-04-20 13:26:00,50.9,30.8,30.30,SSW,203,1.3,1.8,46,0.00,,,0.00,WUHU216HW,2013-04-20 20:26:00,
2013-04-20 13:31:00,50.9,30.8,30.30,SSE,158,1.1,3.4,46,0.00,,,0.00,WUHU216HW,2013-04-20 20:31:00,
2013-04-20 13:36:00,50.9,30.2,30.30,SE,135,1.6,3.4,45,0.00,,,0.00,WUHU216HW,2013-04-20 20:36:00,
2013-04-20 13:41:00,50.9,30.2,30.30,SW,225,0.9,2.5,45,0.00,,,0.00,WUHU216HW,2013-04-20 20:41:00,
2013-04-20 13:46:00,50.8,30.1,30.30,ESE,113,0.9,1.8,45,0.00,,,0.00,WUHU216HW,2013-04-20 20:46:00,
2013-04-20 13:51:00,50.9,29.7,30.30,ESE,113,0.0,1.8,44,0.00,,,0.00,WUHU216HW,2013-04-20 20:51:00,
2013-04-20 13:56:00,50.9,29.7,30.30,ESE,113,0.0,1.1,44,0.00,,,0.00,WUHU216HW,2013-04-20 20:56:00,
2013-04-20 14:01:00,50.8,30.1,30.30,ESE,113,0.4,2.5,45,0.00,,,0.00,WUHU216HW,2013-04-20 21:01:00,
2013-04-20 14:06:00,50.6,29.3,30.30,ESE,113,0.9,2.5,44,0.00,,,0.00,WUHU216HW,2013-04-20 21:06:00,
2013-04-20 14:11:00,50.6,29.3,30.30,ESE,113,1.6,1.6,44,0.00,,,0.00,WUHU216HW,2013-04-20 21:11:00,
2013-04-20 14:16:00,50.8,29.5,30.30,ESE,113,0.7,1.6,44,0.00,,,0.00,WUHU216HW,2013-04-20 21:16:00,
2013-04-20 14:21:00,50.6,28.8,30.29,SE,135,2.5,2.5,43,0.00,,,0.00,WUHU216HW,2013-04-20 21:21:00,
2013-04-20 14:26:00,50.6,29.3,30.29,ESE,113,1.8,3.1,44,0.00,,,0.00,WUHU216HW,2013-04-20 21:26:00,
2013-04-20 14:31:00,50.8,29.0,30.29,ESE,113,0.4,3.1,43,0.00,,,0.00,WUHU216HW,2013-04-20 21:31:00,
2013-04-20 14:36:00,51.1,29.3,30.29,SE,135,0.7,1.8,43,0.00,,,0.00,WUHU216HW,2013-04-20 21:36:00,
2013-04-20 14:41:00,51.1,29.9,30.30,East,90,1.3,2.5,44,0.00,,,0.00,WUHU216HW,2013-04-20 21:41:00,
2013-04-20 14:46:00,51.3,30.0,30.29,ESE,113,1.3,2.7,44,0.00,,,0.00,WUHU216HW,2013-04-20 21:46:00,
2013-04-20 14:51:00,51.1,29.3,30.29,ESE,113,0.7,2.7,43,0.00,,,0.00,WUHU216HW,2013-04-20 21:51:00,
2013-04-20 14:56:00,51.5,29.6,30.29,East,90,0.9,2.5,43,0.00,,,0.00,WUHU216HW,2013-04-20 21:56:00,
2013-04-20 15:01:00,51.7,30.3,30.29,ESE,113,1.6,2.0,44,0.00,,,0.00,WUHU216HW,2013-04-20 22:01:00,
2013-04-20 15:06:00,51.7,30.3,30.29,SSE,158,0.4,2.0,44,0.00,,,0.00,WUHU216HW,2013-04-20 22:06:00,
2013-04-20 15:11:00,51.8,30.5,30.29,SE,135,0.7,1.8,44,0.00,,,0.00,WUHU216HW,2013-04-20 22:11:00,
2013-04-20 15:16:00,51.8,30.5,30.29,SE,135,0.9,1.6,44,0.00,,,0.00,WUHU216HW,2013-04-20 22:16:00,
2013-04-20 15:21:00,52.0,30.7,30.29,SE,135,0.0,2.2,44,0.00,,,0.00,WUHU216HW,2013-04-20 22:21:00,
2013-04-20 15:26:00,52.2,30.2,30.30,SE,135,0.2,2.2,43,0.00,,,0.00,WUHU216HW,2013-04-20 22:26:00,
2013-04-20 15:31:00,52.4,30.4,30.29,SE,135,2.5,2.5,43,0.00,,,0.00,WUHU216HW,2013-04-20 22:31:00,
2013-04-20 15:36:00,52.6,31.1,30.29,ESE,113,0.4,2.5,44,0.00,,,0.00,WUHU216HW,2013-04-20 22:36:00,
2013-04-20 15:41:00,52.7,31.9,30.29,SSE,158,2.9,2.9,45,0.00,,,0.00,WUHU216HW,2013-04-20 22:41:00,
2013-04-20 15:46:00,52.7,31.9,30.29,SE,135,1.3,3.4,45,0.00,,,0.00,WUHU216HW,2013-04-20 22:46:00,
2013-04-20 15:51:00,52.9,32.1,30.29,SSW,203,0.4,3.4,45,0.00,,,0.00,WUHU216HW,2013-04-20 22:51:00,
2013-04-20 15:56:00,52.9,32.1,30.29,SE,135,1.8,3.1,45,0.00,,,0.00,WUHU216HW,2013-04-20 22:56:00,
2013-04-20 16:01:00,53.3,33.0,30.28,ESE,113,0.7,4.0,46,0.00,,,0.00,WUHU216HW,2013-04-20 23:01:00,
2013-04-20 16:06:00,53.5,33.0,30.28,East,90,2.2,4.0,46,0.00,,,0.00,WUHU216HW,2013-04-20 23:06:00,
2013-04-20 16:11:00,53.3,33.5,30.28,SE,135,3.6,4.9,47,0.00,,,0.00,WUHU216HW,2013-04-20 23:11:00,
2013-04-20 16:16:00,53.3,33.0,30.28,SE,135,1.1,4.9,46,0.00,,,0.00,WUHU216HW,2013-04-20 23:16:00,
2013-04-20 16:21:00,53.6,33.2,30.28,ESE,113,0.4,2.0,46,0.00,,,0.00,WUHU216HW,2013-04-20 23:21:00,
2013-04-20 16:26:00,53.5,33.0,30.28,SE,135,2.5,3.8,46,0.00,,,0.00,WUHU216HW,2013-04-20 23:26:00,
2013-04-20 16:31:00,53.5,33.0,30.28,ESE,113,0.9,3.8,46,0.00,,,0.00,WUHU216HW,2013-04-20 23:31:00,
2013-04-20 16:36:00,53.3,33.0,30.28,ESE,113,0.7,3.4,46,0.00,,,0.00,WUHU216HW,2013-04-20 23:36:00,
2013-04-20 16:41:00,52.9,32.6,30.28,SE,135,0.4,2.2,46,0.00,,,0.00,WUHU216HW,2013-04-20 23:41:00,
2013-04-20 16:46:00,52.9,32.6,30.28,ESE,113,0.2,2.5,46,0.00,,,0.00,WUHU216HW,2013-04-20 23:46:00,
2013-04-20 16:51:00,52.9,32.1,30.27,SSE,158,0.7,2.5,45,0.00,,,0.00,WUHU216HW,2013-04-20 23:51:00,
2013-04-20 16:56:00,52.9,32.1,30.27,SSE,158,0.0,0.9,45,0.00,,,0.00,WUHU216HW,2013-04-20 23:56:00,
2013-04-20 17:01:00,52.9,32.1,30.27,ESE,113,0.4,0.7,45,0.00,,,0.00,WUHU216HW,2013-04-21 00:01:00,
2013-04-20 17:06:00,52.6,31.7,30.27,ESE,113,1.1,1.1,45,0.00,,,0.00,WUHU216HW,2013-04-21 00:06:00,
2013-04-20 17:11:00,52.4,31.0,30.27,NNW,338,0.0,1.3,44,0.00,,,0.00,WUHU216HW,2013-04-21 00:11:00,
2013-04-20 17:16:00,52.2,30.2,30.27,ESE,113,0.9,1.3,43,0.00,,,0.00,WUHU216HW,2013-04-21 00:16:00,
2013-04-20 17:21:00,52.2,30.2,30.27,SE,135,2.0,2.0,43,0.00,,,0.00,WUHU216HW,2013-04-21 00:21:00,
2013-04-20 17:26:00,52.2,30.2,30.27,SE,135,0.0,2.0,43,0.00,,,0.00,WUHU216HW,2013-04-21 00:26:00,
2013-04-20 17:31:00,52.4,30.4,30.27,ESE,113,0.7,1.8,43,0.00,,,0.00,WUHU216HW,2013-04-21 00:31:00,
2013-04-20 17:36:00,52.4,29.9,30.27,ESE,113,0.0,1.1,42,0.00,,,0.00,WUHU216HW,2013-04-21 00:36:00,
2013-04-20 17:41:00,52.4,29.9,30.27,NE,45,0.0,1.1,42,0.00,,,0.00,WUHU216HW,2013-04-21 00:41:00,
2013-04-20 17:46:00,52.2,29.7,30.27,ENE,68,0.4,1.1,42,0.00,,,0.00,WUHU216HW,2013-04-21 00:46:00,
2013-04-20 17:51:00,52.2,29.7,30.26,ESE,113,0.2,1.1,42,0.00,,,0.00,WUHU216HW,2013-04-21 00:51:00,
2013-04-20 17:56:00,52.0,29.5,30.27,East,90,0.0,0.7,42,0.00,,,0.00,WUHU216HW,2013-04-21 00:56:00,
2013-04-20 18:01:00,52.2,29.7,30.26,SSE,158,1.6,2.2,42,0.00,,,0.00,WUHU216HW,2013-04-21 01:01:00,
2013-04-20 18:06:00,52.0,30.1,30.26,SW,225,1.3,2.2,43,0.00,,,0.00,WUHU216HW,2013-04-21 01:06:00,
2013-04-20 18:11:00,52.0,30.1,30.26,SW,225,1.1,1.8,43,0.00,,,0.00,WUHU216HW,2013-04-21 01:11:00,
2013-04-20 18:16:00,51.8,31.1,30.26,SW,225,2.0,3.8,45,0.00,,,0.00,WUHU216HW,2013-04-21 01:16:00,
2013-04-20 18:21:00,51.7,31.4,30.26,NW,315,6.9,6.9,46,0.00,,,0.00,WUHU216HW,2013-04-21 01:21:00,
2013-04-20 18:26:00,51.7,31.4,30.26,ESE,113,1.3,6.9,46,0.00,,,0.00,WUHU216HW,2013-04-21 01:26:00,
2013-04-20 18:31:00,51.7,31.4,30.26,WSW,248,1.1,4.7,46,0.00,,,0.00,WUHU216HW,2013-04-21 01:31:00,
2013-04-20 18:36:00,51.3,32.8,30.26,WSW,248,2.7,8.9,49,0.00,,,0.00,WUHU216HW,2013-04-21 01:36:00,
2013-04-20 18:41:00,51.3,33.4,30.26,South,180,6.0,12.8,50,0.00,,,0.00,WUHU216HW,2013-04-21 01:41:00,
2013-04-20 18:46:00,51.3,33.4,30.26,SW,225,6.0,12.8,50,0.00,,,0.00,WUHU216HW,2013-04-21 01:46:00,
2013-04-20 18:51:00,51.5,32.4,30.26,SSE,158,2.2,11.0,48,0.00,,,0.00,WUHU216HW,2013-04-21 01:51:00,
2013-04-20 18:56:00,51.1,32.0,30.26,NW,315,2.9,6.5,48,0.00,,,0.00,WUHU216HW,2013-04-21 01:56:00,
2013-04-20 19:01:00,51.1,33.2,30.26,SSW,203,6.0,6.5,50,0.00,,,0.00,WUHU216HW,2013-04-21 02:01:00,
2013-04-20 19:06:00,51.1,32.7,30.26,SSW,203,6.7,6.7,49,0.00,,,0.00,WUHU216HW,2013-04-21 02:06:00,
2013-04-20 19:11:00,50.9,33.0,30.26,NW,315,1.8,6.7,50,0.00,,,0.00,WUHU216HW,2013-04-21 02:11:00,
2013-04-20 19:16:00,50.8,32.3,30.26,WSW,248,3.6,7.6,49,0.00,,,0.00,WUHU216HW,2013-04-21 02:16:00,
2013-04-20 19:21:00,50.8,31.8,30.26,WSW,248,1.1,7.6,48,0.00,,,0.00,WUHU216HW,2013-04-21 02:21:00,
2013-04-20 19:26:00,50.8,31.8,30.26,WNW,293,0.7,4.7,48,0.00,,,0.00,WUHU216HW,2013-04-21 02:26:00,
2013-04-20 19:31:00,50.6,32.1,30.27,WSW,248,3.6,6.3,49,0.00,,,0.00,WUHU216HW,2013-04-21 02:31:00,
2013-04-20 19:36:00,50.4,31.4,30.27,WSW,248,3.4,6.3,48,0.00,,,0.00,WUHU216HW,2013-04-21 02:36:00,
2013-04-20 19:41:00,50.4,31.4,30.27,SW,225,1.8,6.5,48,0.00,,,0.00,WUHU216HW,2013-04-21 02:41:00,
2013-04-20 19:46:00,50.2,31.9,30.27,SW,225,2.7,6.5,49,0.00,,,0.00,WUHU216HW,2013-04-21 02:46:00,
2013-04-20 19:51:00,50.2,31.9,30.27,WSW,248,2.0,6.9,49,0.00,,,0.00,WUHU216HW,2013-04-21 02:51:00,
2013-04-20 19:56:00,50.0,31.7,30.27,WSW,248,0.4,7.8,49,0.00,,,0.00,WUHU216HW,2013-04-21 02:56:00,
2013-04-20 20:01:00,50.0,31.7,30.28,South,180,2.2,7.8,49,0.00,,,0.00,WUHU216HW,2013-04-21 03:01:00,
2013-04-20 20:06:00,49.9,31.5,30.28,South,180,1.1,7.4,49,0.00,,,0.00,WUHU216HW,2013-04-21 03:06:00,
2013-04-20 20:11:00,49.9,32.0,30.28,NW,315,2.0,7.4,50,0.00,,,0.00,WUHU216HW,2013-04-21 03:11:00,
2013-04-20 20:16:00,49.9,32.0,30.28,ESE,113,2.2,6.9,50,0.00,,,0.00,WUHU216HW,2013-04-21 03:16:00,
2013-04-20 20:21:00,49.7,31.3,30.28,East,90,0.9,6.9,49,0.00,,,0.00,WUHU216HW,2013-04-21 03:21:00,
2013-04-20 20:26:00,49.7,31.9,30.28,West,270,1.8,5.4,50,0.00,,,0.00,WUHU216HW,2013-04-21 03:26:00,
2013-04-20 20:31:00,49.7,31.9,30.28,SSE,158,1.6,6.3,50,0.00,,,0.00,WUHU216HW,2013-04-21 03:31:00,
2013-04-20 20:36:00,49.5,31.7,30.28,SE,135,1.6,6.3,50,0.00,,,0.00,WUHU216HW,2013-04-21 03:36:00,
2013-04-20 20:41:00,49.5,31.2,30.28,WNW,293,1.8,4.3,49,0.00,,,0.00,WUHU216HW,2013-04-21 03:41:00,
2013-04-20 20:46:00,49.3,31.5,30.28,WNW,293,0.7,4.3,50,0.00,,,0.00,WUHU216HW,2013-04-21 03:46:00,
2013-04-20 20:51:00,49.3,31.5,30.28,SW,225,3.4,4.7,50,0.00,,,0.00,WUHU216HW,2013-04-21 03:51:00,
2013-04-20 20:56:00,49.3,31.0,30.28,South,180,1.1,4.7,49,0.00,,,0.00,WUHU216HW,2013-04-21 03:56:00,
2013-04-20 21:01:00,49.3,31.0,30.28,SW,225,1.3,4.0,49,0.00,,,0.00,WUHU216HW,2013-04-21 04:01:00,
2013-04-20 21:06:00,49.1,30.8,30.28,WSW,248,3.6,4.9,49,0.00,,,0.00,WUHU216HW,2013-04-21 04:06:00,
2013-04-20 21:11:00,49.1,30.8,30.29,SSW,203,1.6,5.6,49,0.00,,,0.00,WUHU216HW,2013-04-21 04:11:00,
2013-04-20 21:16:00,49.1,30.8,30.29,WNW,293,0.7,5.6,49,0.00,,,0.00,WUHU216HW,2013-04-21 04:16:00,
2013-04-20 21:21:00,49.1,30.8,30.29,WSW,248,1.6,4.3,49,0.00,,,0.00,WUHU216HW,2013-04-21 04:21:00,
2013-04-20 21:26:00,49.0,30.6,30.29,South,180,0.2,6.9,49,0.00,,,0.00,WUHU216HW,2013-04-21 04:26:00,
2013-04-20 21:31:00,49.1,30.8,30.29,SSW,203,0.9,6.9,49,0.00,,,0.00,WUHU216HW,2013-04-21 04:31:00,
2013-04-20 21:36:00,49.0,30.6,30.29,SSW,203,2.7,3.8,49,0.00,,,0.00,WUHU216HW,2013-04-21 04:36:00,
2013-04-20 21:41:00,49.0,30.6,30.29,SW,225,1.8,5.8,49,0.00,,,0.00,WUHU216HW,2013-04-21 04:41:00,
2013-04-20 21:46:00,48.8,30.4,30.29,NW,315,6.9,7.6,49,0.00,,,0.00,WUHU216HW,2013-04-21 04:46:00,
2013-04-20 21:51:00,48.8,29.9,30.29,WSW,248,2.7,7.6,48,0.00,,,0.00,WUHU216HW,2013-04-21 04:51:00,
2013-04-20 21:56:00,48.8,29.9,30.30,SSW,203,0.0,5.4,48,0.00,,,0.00,WUHU216HW,2013-04-21 04:56:00,
2013-04-20 22:01:00,48.6,30.3,30.30,SSW,203,2.9,2.9,49,0.00,,,0.00,WUHU216HW,2013-04-21 05:01:00,
2013-04-20 22:06:00,48.6,29.7,30.30,SE,135,1.3,2.9,48,0.00,,,0.00,WUHU216HW,2013-04-21 05:06:00,
2013-04-20 22:11:00,48.6,29.7,30.30,SW,225,2.5,3.8,48,0.00,,,0.00,WUHU216HW,2013-04-21 05:11:00,
2013-04-20 22:16:00,48.6,29.7,30.30,WNW,293,0.2,4.0,48,0.00,,,0.00,WUHU216HW,2013-04-21 05:16:00,
2013-04-20 22:21:00,48.6,29.7,30.30,East,90,1.8,4.0,48,0.00,,,0.00,WUHU216HW,2013-04-21 05:21:00,
2013-04-20 22:26:00,48.6,29.7,30.30,North,0,2.2,6.0,48,0.00,,,0.00,WUHU216HW,2013-04-21 05:26:00,
2013-04-20 22:31:00,48.6,29.7,30.30,SW,225,0.0,6.0,48,0.00,,,0.00,WUHU216HW,2013-04-21 05:31:00,
2013-04-20 22:36:00,48.4,29.0,30.30,SSW,203,1.8,3.4,47,0.00,,,0.00,WUHU216HW,2013-04-21 05:36:00,
2013-04-20 22:41:00,48.4,29.5,30.30,SW,225,0.4,3.4,48,0.00,,,0.00,WUHU216HW,2013-04-21 05:41:00,
2013-04-20 22:46:00,48.4,29.0,30.30,SSW,203,2.0,2.0,47,0.00,,,0.00,WUHU216HW,2013-04-21 05:46:00,
2013-04-20 22:51:00,48.2,29.3,30.30,SE,135,1.3,2.7,48,0.00,,,0.00,WUHU216HW,2013-04-21 05:51:00,
2013-04-20 22:56:00,48.2,29.3,30.30,ESE,113,1.1,2.7,48,0.00,,,0.00,WUHU216HW,2013-04-21 05:56:00,
2013-04-20 23:01:00,48.2,29.3,30.30,SSW,203,2.0,4.0,48,0.00,,,0.00,WUHU216HW,2013-04-21 06:01:00,
2013-04-20 23:06:00,48.2,28.8,30.30,SW,225,1.8,4.0,47,0.00,,,0.00,WUHU216HW,2013-04-21 06:06:00,
2013-04-20 23:11:00,48.2,28.8,30.30,South,180,1.1,3.4,47,0.00,,,0.00,WUHU216HW,2013-04-21 06:11:00,
2013-04-20 23:16:00,48.1,28.6,30.30,SW,225,2.5,4.7,47,0.00,,,0.00,WUHU216HW,2013-04-21 06:16:00,
2013-04-20 23:21:00,48.1,28.6,30.30,SSE,158,2.0,4.7,47,0.00,,,0.00,WUHU216HW,2013-04-21 06:21:00,
2013-04-20 23:26:00,48.1,28.6,30.30,South,180,0.7,2.2,47,0.00,,,0.00,WUHU216HW,2013-04-21 06:26:00,
2013-04-20 23:31:00,47.9,28.4,30.30,South,180,0.9,6.3,47,0.00,,,0.00,WUHU216HW,2013-04-21 06:31:00,
2013-04-20 23:36:00,47.9,28.4,30.30,WSW,248,2.5,6.3,47,0.00,,,0.00,WUHU216HW,2013-04-21 06:36:00,
2013-04-20 23:41:00,47.9,28.4,30.29,SSW,203,0.2,4.3,47,0.00,,,0.00,WUHU216HW,2013-04-21 06:41:00,
2013-04-20 23:46:00,47.9,28.4,30.29,SE,135,2.5,5.6,47,0.00,,,0.00,WUHU216HW,2013-04-21 06:46:00,
2013-04-20 23:51:00,47.7,28.4,30.29,South,180,2.5,5.6,47,0.00,,,0.00,WUHU216HW,2013-04-21 06:51:00,
2013-04-20 23:56:00,47.7,28.4,30.30,SSW,203,2.0,4.0,47,0.00,,,0.00,WUHU216HW,2013-04-21 06:56:00,